SCP
0 0 0 0 0 0 0 0 0 0 0 0 0 0 0 0 0 1 1 2 2 2 2 2 2 2 2 2 2 1 1 1 1 1 1 1 1 1 1 1 1 1 1 1 1 1 1 1 1
0 0 0 0 0 0 0 0 0 0 0 0 0 0 0 0 0 1 1 2 2 2 2 2 2 2 2 2 2 1 1 1 1 1 1 1 1 1 1 1 1 1 1 1 1 1 1 1 1
0 0 0 0 0 0 0 0 0 0 0 0 0 0 0 0 1 1 1 1 2 2 2 2 3 3 2 2 2 1 1 1 1 1 1 1 1 1 1 1 1 1 1 1 1 1 1 1 1
0 0 0 0 0 0 0 0 0 0 0 0 0 0 0 0 1 1 1 1 2 2 2 2 3 3 3 2 2 2 1 1 1 1 1 1 1 1 1 1 1 1 1 1 1 1 1 1 1
0 0 0 0 0 0 0 0 0 0 0 0 0 0 0 0 1 1 1 1 2 2 2 2 2 3 3 3 3 2 2 1 1 1 1 1 1 1 1 1 1 1 1 1 1 0 0 1 1
0 0 0 0 0 0 0 0 0 0 0 0 0 0 0 0 1 1 2 2 2 2 2 2 2 2 3 3 3 2 2 2 1 1 1 1 1 1 1 1 1 1 1 1 1 1 0 0 1
0 0 0 0 0 0 0 0 0 0 0 0 0 0 0 0 1 1 2 2 2 2 2 2 2 2 2 2 3 3 3 2 2 2 1 1 1 1 1 1 1 1 1 1 1 1 1 0 0
0 0 0 0 0 0 0 0 0 0 0 0 0 0 0 1 1 2 2 2 2 3 3 2 2 2 2 2 2 3 3 3 2 2 2 1 1 1 1 1 1 1 1 1 1 1 1 1 1
0 0 0 0 0 0 0 0 0 0 0 0 0 0 1 1 2 2 2 2 3 3 3 2 2 2 2 2 2 2 2 2 2 2 2 2 1 1 1 1 1 1 1 1 1 1 1 1 1
0 0 0 0 0 0 0 0 0 0 0 0 0 1 1 2 2 2 2 2 2 3 3 2 2 2 2 2 2 2 2 2 2 2 2 2 2 1 1 1 1 1 1 1 1 1 1 1 1
0 0 0 0 0 0 0 0 0 0 0 0 0 0 1 1 1 1 1 1 2 2 3 2 2 2 3 3 2 2 2 2 1 1 1 1 1 1 1 1 1 1 1 1 1 1 1 1 0
0 0 0 0 0 0 0 0 0 0 0 0 0 0 0 0 1 1 1 1 1 2 2 2 2 3 3 3 3 2 2 2 2 1 1 1 1 2 2 2 2 1 1 1 1 1 1 0 0
0 0 0 0 0 0 0 0 0 0 0 0 0 0 0 0 0 0 0 0 1 1 2 2 2 2 3 3 3 3 2 2 2 2 1 1 2 2 2 2 2 2 2 2 1 1 1 1 1
0 0 0 0 0 0 0 0 0 0 0 0 0 0 0 0 0 1 0 0 1 1 2 2 2 2 3 3 3 2 2 2 2 2 2 2 2 2 2 2 2 2 2 2 2 2 1 1 1
0 0 0 0 0 0 0 0 0 0 0 0 0 0 0 0 0 1 0 0 0 1 2 2 3 3 3 3 3 2 2 2 2 2 2 2 2 2 2 2 2 2 2 2 2 2 2 1 1
0 0 0 0 0 0 0 0 0 0 0 0 0 0 0 0 0 1 0 0 0 1 2 3 3 3 3 3 2 2 2 2 2 2 2 2 2 2 2 2 2 2 2 2 2 2 2 2 1
0 0 0 0 0 0 0 0 0 0 0 0 0 0 0 0 0 0 0 0 0 0 1 2 2 3 3 3 2 2 2 2 2 2 1 1 2 2 2 2 2 2 2 2 2 2 2 1 1
0 0 0 0 0 0 0 0 0 0 0 0 0 0 0 0 0 0 0 0 0 0 0 1 2 3 3 3 3 2 2 2 2 2 2 2 2 2 2 2 2 2 2 2 2 1 1 1 1
0 0 0 0 0 0 0 0 0 0 0 0 0 0 0 0 0 0 0 0 0 0 0 1 2 3 3 3 3 2 2 2 2 2 2 2 2 2 2 3 3 3 2 2 1 1 1 1 1
0 0 0 0 0 0 0 0 0 0 0 0 0 0 0 0 0 0 0 0 0 0 0 0 1 2 3 3 3 2 2 3 3 2 2 2 2 2 3 3 3 2 2 1 1 1 1 1 1
0 0 0 0 0 0 0 0 0 0 0 0 0 0 0 0 0 0 0 0 0 0 0 0 0 1 1 2 2 2 3 3 3 2 2 2 2 2 3 3 2 2 1 1 1 1 1 0 0
0 0 0 0 0 0 0 0 0 0 0 0 0 0 0 0 0 0 0 0 0 0 0 0 0 0 0 0 0 1 3 3 3 3 2 1 2 2 2 2 1 1 1 1 0 0 0 0 0
0 0 0 0 0 0 0 0 0 0 0 0 0 0 0 0 0 0 0 0 0 0 0 0 0 0 0 0 0 1 2 2 3 3 2 1 1 1 1 1 1 1 1 0 0 0 0 0 0
0 0 0 0 0 0 0 0 0 0 0 0 0 0 0 0 0 0 0 0 0 0 0 0 0 0 0 0 0 0 1 1 2 3 2 1 1 1 1 0 0 0 0 0 0 0 0 0 0
0 0 0 0 0 0 0 0 0 0 0 0 0 0 0 0 0 0 0 0 0 0 0 0 0 0 0 0 0 0 1 1 1 2 1 1 0 0 0 0 0 0 0 0 0 0 0 0 0
0 0 0 0 0 0 0 0 0 0 0 0 0 0 0 0 0 0 0 0 0 0 0 0 0 0 0 0 0 0 0 0 0 0 0 0 0 0 0 0 0 0 0 0 0 0 0 0 0
0 0 0 0 0 0 0 0 0 0 0 0 0 0 0 0 0 0 0 0 0 0 0 0 0 0 0 0 0 0 0 0 0 0 0 0 0 0 0 0 0 0 0 0 0 0 0 0 0
0 0 0 0 0 0 0 0 0 0 0 0 0 0 0 0 0 0 0 0 0 0 0 0 0 0 0 0 0 0 0 0 0 0 0 0 0 0 0 0 0 0 0 0 0 0 0 0 0
0 0 0 0 0 0 0 0 0 0 0 0 0 0 0 0 0 0 0 0 0 0 0 0 0 0 0 0 0 0 0 0 0 0 0 0 0 0 0 0 0 0 1 0 0 0 0 0 0
0 0 0 0 0 0 0 0 0 0 0 0 0 0 0 0 0 0 0 0 0 0 0 0 0 0 0 0 0 0 0 0 0 0 0 0 0 0 0 0 0 0 1 1 1 0 0 0 0
Wind_Speed
10 10 8 3 3 5 8 6 3 2 3 5 6 4 5 5 5 8 4 6 10 11 12 10 10 10 10 10 10 9 9 9 9 8 8 8 8 8 8 8 8 8 8 7 7 7 7 7 7
10 8 5 3 4 6 7 8 6 2 5 5 3 2 3 5 8 8 5 6 10 12 11 10 10 10 10 10 10 9 9 8 8 8 7 7 7 7 7 7 7 7 7 7 7 7 7 7 7
11 9 4 4 6 6 4 3 4 6 7 3 1 2 2 4 7 6 6 5 9 11 10 10 11 10 10 10 10 9 9 8 7 7 6 6 6 6 6 6 7 7 7 7 7 7 6 6 6
6 4 4 6 11 8 4 3 6 5 4 3 2 3 4 5 5 7 7 6 9 11 10 10 11 10 10 9 9 9 8 8 7 7 6 5 5 6 6 6 6 6 6 6 6 6 6 5 5
4 4 6 8 11 9 4 3 5 2 3 4 3 3 5 5 8 8 5 6 9 10 10 10 11 10 10 9 8 8 8 7 7 6 6 5 5 5 5 6 6 6 6 5 5 5 5 5 4
4 4 6 10 10 9 5 2 4 3 3 4 4 3 5 6 7 6 5 5 9 10 10 9 10 10 9 9 8 8 8 7 7 6 5 5 5 5 5 5 5 5 5 4 4 4 4 3 3
5 4 8 10 7 6 5 3 4 4 4 3 3 3 6 7 6 6 5 5 8 9 9 8 7 8 8 8 8 7 7 7 6 5 5 4 4 4 4 4 4 4 4 4 3 3 3 2 2
4 4 8 9 8 5 2 2 1 1 1 1 1 2 6 7 7 6 6 6 6 7 8 8 7 6 6 5 7 7 6 6 5 5 4 4 4 4 4 3 4 3 3 3 3 2 1 1 2
4 5 7 8 6 2 3 2 2 2 2 1 2 4 7 10 7 6 5 5 5 5 5 6 6 6 5 5 6 6 5 5 4 4 3 3 2 2 3 3 3 3 3 3 3 2 2 2 2
5 6 7 4 4 2 2 1 2 2 3 2 3 5 8 7 6 6 6 6 6 4 4 5 5 5 4 4 5 3 3 3 2 2 2 1 1 1 2 3 3 3 2 2 3 3 3 2 2
7 7 6 5 4 4 2 1 2 4 5 5 6 7 7 7 6 6 6 6 6 5 4 4 4 4 4 3 3 2 2 2 1 1 2 1 1 1 1 1 2 2 2 1 2 2 2 2 2
8 8 7 5 3 3 3 3 4 6 4 1 3 7 7 7 6 6 6 6 7 6 5 4 4 3 3 3 2 2 2 2 1 1 2 1 1 1 1 1 1 1 1 1 1 1 2 2 2
12 8 7 5 3 4 5 6 6 7 5 1 1 4 6 7 6 5 4 5 6 6 6 4 4 4 3 2 2 2 1 2 2 1 1 1 1 1 1 1 1 1 1 1 1 1 1 1 1
6 7 8 7 6 6 8 8 8 8 5 5 5 6 6 6 6 6 5 5 5 6 6 5 4 4 3 2 2 1 1 1 1 1 1 1 1 1 1 0 0 1 1 1 1 1 1 1 1
5 6 8 9 8 6 6 10 12 11 8 8 8 7 7 7 6 6 6 6 5 6 6 6 5 4 4 3 2 2 2 2 1 1 1 1 1 1 1 1 1 1 1 1 1 1 0 1 1
5 6 7 8 10 7 6 10 8 8 9 9 8 8 7 8 8 6 6 6 6 5 6 6 5 5 4 3 2 2 2 2 2 1 1 1 1 1 1 1 1 1 0 0 0 0 0 1 1
7 7 9 7 9 8 9 8 4 4 6 8 8 7 7 7 8 7 6 6 6 6 6 6 5 5 4 3 2 2 1 2 2 1 1 1 0 0 1 1 1 1 0 0 0 0 0 1 1
7 8 8 8 7 7 9 9 6 5 6 7 7 7 7 7 7 7 7 6 6 6 6 6 5 5 4 3 2 1 1 1 1 1 1 1 1 0 0 1 1 1 0 0 0 1 1 1 1
7 7 8 5 2 4 8 10 10 8 8 9 8 7 7 7 7 6 7 7 6 6 6 6 6 5 4 3 2 2 1 1 1 1 1 1 1 1 1 1 1 1 1 1 1 1 1 1 0
10 10 9 4 2 4 7 11 11 10 11 10 10 9 8 7 7 6 6 6 6 6 6 6 6 5 4 3 2 2 2 1 1 1 1 1 1 2 1 2 1 1 1 1 2 1 1 1 0
11 10 9 6 3 4 6 10 12 11 11 10 9 7 6 7 7 7 6 5 5 5 6 5 5 5 4 4 2 2 2 1 1 1 1 2 2 1 1 2 2 2 2 2 2 2 2 2 1
9 8 8 7 4 4 4 6 6 6 8 9 9 8 7 6 6 7 7 6 6 5 5 5 5 4 4 4 4 3 3 2 2 2 2 2 2 2 2 2 2 2 2 2 2 2 2 2 2
4 2 4 5 5 5 5 6 8 6 7 7 7 7 6 6 6 6 6 6 5 5 5 4 4 4 4 4 4 3 2 2 1 1 1 2 2 2 2 2 2 1 1 2 2 2 2 2 2
3 1 2 2 2 7 9 8 7 4 6 5 5 5 5 5 5 5 5 5 4 4 5 4 4 3 4 4 3 3 3 2 2 1 2 1 1 1 1 1 1 1 1 2 2 2 2 2 2
5 4 3 3 4 8 7 8 6 2 2 3 4 4 5 5 5 5 6 5 4 4 4 4 4 4 3 4 3 3 4 4 4 2 2 1 0 0 1 1 1 1 1 1 1 2 2 3 3
7 7 5 5 5 3 4 7 3 3 4 4 4 5 5 4 4 5 5 5 4 4 4 4 4 3 3 3 3 3 3 2 2 2 2 1 1 1 1 1 1 1 1 1 1 1 2 2 3
5 6 3 1 2 2 5 4 2 4 4 4 4 5 4 4 3 4 4 5 4 4 3 3 4 3 3 3 3 3 3 2 2 2 1 1 1 1 0 1 1 1 1 1 1 1 2 2 2
3 3 3 3 4 5 5 6 4 6 5 5 5 5 4 3 3 3 3 4 4 4 3 3 3 3 2 3 3 2 2 3 2 2 1 1 1 0 0 1 1 1 2 2 2 2 2 2 3
4 4 4 4 4 3 3 1 2 5 5 5 5 5 5 3 3 2 2 3 3 3 3 2 2 2 2 2 2 3 2 2 2 1 1 1 1 1 1 1 1 1 2 2 2 2 3 3 3
3 4 4 3 4 3 2 1 3 5 5 5 5 4 4 3 3 2 2 3 3 3 3 2 2 2 1 2 2 2 2 2 2 1 1 1 0 0 0 0 1 2 2 2 2 3 3 4 4
Wind_Direction
281 257 241 239 233 232 240 241 240 104 54 37 25 20 26 25 44 106 152 108 113 117 119 117 112 113 111 109 107 103 103 102 101 100 99 100 100 102 101 100 100 98 94 93 93 93 91 90 89
281 253 236 234 237 233 232 220 230 135 90 67 35 21 49 74 88 106 111 104 115 114 117 120 113 111 110 109 109 108 105 104 103 102 100 100 101 101 100 99 97 97 95 91 89 92 93 91 90
269 254 235 227 230 236 248 173 130 101 102 114 115 23 43 75 96 106 117 126 114 113 117 117 116 113 111 109 108 109 108 105 106 106 105 104 104 104 102 99 98 97 95 92 90 90 93 93 93
247 227 242 242 244 246 261 72 82 99 118 143 143 114 80 42 70 104 124 135 115 113 114 120 117 116 114 111 109 107 106 104 104 105 105 106 104 104 102 98 99 98 98 98 96 93 93 95 96
247 235 229 238 245 256 268 99 111 153 166 172 180 135 99 85 88 109 133 132 117 114 116 122 117 116 115 114 112 111 107 105 104 103 102 101 102 102 102 103 102 105 103 103 104 100 98 97 99
234 237 233 232 232 232 235 181 160 199 206 169 166 159 114 124 117 127 129 121 115 117 120 126 119 117 115 114 114 111 109 108 106 103 103 101 100 103 106 110 110 112 112 108 108 106 104 108 105
248 250 250 253 246 228 202 166 189 201 207 188 164 146 131 139 131 135 128 111 111 118 122 129 131 123 116 115 117 114 111 109 109 106 105 104 101 103 108 111 115 116 118 112 108 108 109 124 127
268 271 253 252 251 248 161 138 134 299 262 58 81 153 141 139 135 135 121 109 105 113 123 132 136 135 133 127 122 120 117 117 116 115 115 115 119 119 114 116 117 120 124 126 126 130 130 152 157
273 254 251 249 248 234 123 137 105 19 338 17 47 50 107 124 133 129 121 116 111 115 121 131 136 137 139 140 135 130 128 129 133 132 131 133 148 147 142 142 137 138 144 154 159 168 174 175 180
220 240 246 288 333 359 99 138 148 194 214 198 134 106 115 130 145 151 152 146 136 137 129 125 128 132 134 138 139 151 150 147 155 151 148 163 161 152 142 154 153 159 162 180 194 197 195 189 186
213 239 260 286 342 345 336 265 232 239 229 208 173 152 150 158 170 174 172 155 148 141 128 123 123 128 130 124 140 147 144 144 167 162 155 174 164 135 128 143 154 172 169 187 210 204 211 215 198
241 246 263 285 344 322 289 274 256 246 251 341 126 150 162 177 186 186 179 160 147 142 140 129 122 117 121 124 133 138 138 143 157 168 154 147 134 127 134 131 160 173 182 194 189 213 230 234 214
238 253 259 269 275 276 279 267 269 263 265 260 161 166 181 189 192 192 180 157 145 144 145 140 131 128 121 117 130 125 127 140 151 141 151 138 132 145 144 139 159 191 192 183 190 209 229 240 248
248 247 250 248 241 246 251 255 250 246 236 218 205 197 197 199 194 192 181 168 159 152 151 150 146 137 135 136 137 139 144 136 126 130 136 139 134 144 155 166 155 218 209 194 197 205 224 230 249
280 272 258 242 229 228 242 250 236 233 224 221 215 205 199 201 199 198 183 173 169 162 154 152 151 145 145 147 156 151 156 137 124 124 125 109 120 146 153 166 199 226 221 216 208 224 249 266 268
241 245 245 226 208 202 212 250 234 208 207 217 216 208 201 198 197 195 185 175 170 161 155 156 153 154 156 153 165 169 157 139 134 134 129 131 128 153 151 165 209 240 215 149 203 174 223 275 268
217 231 235 227 200 189 207 249 233 208 207 216 216 212 203 199 198 193 180 174 170 164 158 154 154 160 155 152 157 160 144 138 138 127 133 152 194 204 159 170 202 214 197 188 229 89 221 259 270
210 226 238 227 197 202 220 246 241 227 225 228 220 214 208 201 198 188 178 173 168 163 159 155 155 160 152 149 136 120 110 121 124 135 155 166 202 227 159 188 205 188 165 211 197 211 248 246 249
272 268 259 262 228 226 240 251 251 234 225 229 224 214 210 204 194 179 175 169 161 158 158 159 159 164 152 149 151 152 168 157 133 160 171 184 200 207 187 215 211 190 196 207 223 218 207 282 324
252 268 273 283 261 273 270 266 259 239 227 221 219 214 208 201 189 175 168 163 164 164 163 163 164 163 160 153 153 154 153 155 161 167 189 214 216 209 195 181 205 213 208 217 221 203 203 244 205
234 239 252 259 286 274 285 278 250 237 225 218 216 211 207 199 186 172 166 166 162 164 164 165 161 156 154 142 127 116 101 95 142 195 205 215 227 214 189 195 195 211 210 215 217 201 206 209 234
238 235 247 256 258 258 233 281 267 232 217 212 207 203 204 196 186 172 167 167 166 161 153 154 150 150 151 145 151 161 173 186 201 193 191 209 215 202 191 196 206 215 207 208 219 212 207 195 218
232 265 246 245 249 268 246 256 270 229 216 203 196 190 186 180 171 163 161 159 152 146 145 148 148 151 151 152 158 170 186 192 174 166 194 216 217 206 196 195 205 216 206 204 215 217 218 211 216
189 209 254 255 244 250 222 221 266 225 202 176 174 165 161 156 151 144 133 127 126 128 133 142 152 160 161 161 166 179 187 178 171 198 214 223 209 208 205 184 195 208 211 212 217 214 222 229 233
192 168 173 193 212 241 207 209 241 201 111 124 137 141 138 137 138 133 131 130 133 141 150 156 159 171 172 166 176 190 190 179 179 191 196 194 211 263 267 216 208 212 221 230 222 215 221 225 228
206 201 191 195 212 233 206 221 236 113 96 86 91 103 104 112 125 133 138 142 146 154 162 162 166 176 172 170 184 184 179 167 166 165 165 178 194 232 234 241 234 238 245 252 238 235 234 232 234
191 219 244 286 292 263 231 218 158 121 118 118 109 100 105 110 115 130 135 140 146 154 162 166 169 168 169 173 170 166 162 149 151 155 149 171 188 209 226 243 239 245 241 233 233 238 244 241 234
233 191 176 188 204 234 235 214 197 156 152 137 127 117 102 105 109 121 135 140 147 152 153 156 158 159 161 160 166 157 147 137 137 137 156 170 173 174 212 243 244 251 247 234 229 242 245 245 248
200 200 198 202 232 216 236 211 34 128 126 130 128 122 117 115 121 120 132 134 130 127 132 136 129 130 144 157 152 142 135 130 130 135 151 155 184 205 218 235 255 266 262 261 251 248 248 249 252
206 205 191 190 228 232 252 277 18 92 91 99 104 105 107 109 112 110 115 118 118 119 117 119 124 124 132 134 127 131 127 128 132 143 144 129 181 233 250 297 296 286 288 276 262 267 268 258 256